Tracking 20626 objects as of 8-Apr-2020
HD Live streaming from Space Station
objects crossing your sky now

SL-14 R/B

Track SL-14 R/B now!
10-day predictions


NORAD ID: 16409
Int'l Code: 1985-119B
Perigee: 942.7 km
Apogee: 965.3 km
Inclination: 82.5 °
Period: 104.0 minutes
Semi major axis: 7325 km
RCS: 5.0426 m2 (large)
Launch date: December 26, 1985
Source: Commonwealth of Independent States (former USSR) (CIS)
Launch site: PLESETSK MISSILE AND SPACE COMPLEX (PKMTR)

Note: This is a ROCKET BODY
aabbcc
Your satellite tracking list
Your tracking list is empty




NASA's NSSDC Master Catalog

Two Line Element Set (TLE):
1 16409U 85119B   20099.59236889 +.00000010 +00000-0 -39865-5 0  9992
2 16409 082.5343 262.3703 0015451 028.9250 331.2764 13.84811222732596
Source of the keplerian elements: AFSPC